[[{"header":{"parameterUnit":"m.s-1","parameterCategory":1,"la1":30.2991,"la2":30.254,"lo1":-89.0895,"lo2":-89.0444,"dx":0.0017,"dy":0.0017,"nx":28,"ny":28,"refTime":"2022-11-15T09:00:00:Z","depth":0,"parameterNumber":2,"parameterNumberName":"U-component_of_WINDS"},"data":[0,0,0,0,0,0,0,0,0,0,0,0,0,0,0,0,0,0,0,0,0,0,0,0,0,0,0,0,0,0,0,0,0,0,0,0,0,0,0,0,0,0,0,0,0,0,0,0,0,0,0,0,0,0,0,0,0,0,0.2293,0.2293,0,0.2272,0.2272,0.2272,0.2292,0.2293,0.2294,0.2295,0.227,0.2269,0.2268,0,0,0,0,0,0,0,0,0,0,0,0,0,0.2349,0.2348,0.2293,0.2293,0.2293,0.2272,0.2272,0.2272,0.2292,0.2293,0.2294,0.2295,0.2271,0.2269,0.2268,0,0,0,0,0,0,0,0,0,0,0,0,0,0.2326,0.2348,0.2293,0.2301,0.2301,0.2272,0.2272,0.2272,0.2292,0.2293,0.2295,0.2296,0.2271,0.2269,0.2267,0.2229,0,0,0.2261,0.226,0,0,0,0,0,0,0,0,0.2328,0.2324,0.23,0.23,0.2301,0.2286,0.2283,0.2257,0.2292,0.2295,0.2295,0.2296,0.2275,0.2272,0.2265,0.2228,0.2227,0.2261,0.2259,0.2258,0.2258,0,0,0,0,0,0,0,0.2329,0.2325,0.2285,0.2299,0.23,0.2304,0.2303,0.2278,0.2278,0.2295,0.2297,0.2294,0.2275,0.2267,0.2265,0.2227,0.2261,0.2259,0.2257,0.2257,0.2158,0.2157,0,0,0,0,0,0,0.233,0.2326,0.2286,0.2284,0.2318,0.2302,0.23,0.229,0.2279,0.2278,0.2293,0.2295,0.2271,0.2268,0.2264,0.2219,0.2258,0.2256,0.2255,0.216,0.2158,0.2157,0,0,0,0,0,0,0.2331,0.2326,0.2286,0.2306,0.2301,0.23,0.2288,0.2289,0.2281,0.2277,0.2277,0.2285,0.2271,0.2267,0.2238,0.2219,0.2255,0.2254,0.2161,0.2159,0.2157,0.2129,0,0,0,0,0,0,0.2333,0.2327,0.2313,0.2305,0.23,0.2261,0.2287,0.2287,0.2278,0.228,0.227,0.2269,0.2272,0.2241,0.2236,0.2216,0.2252,0.2163,0.216,0.2158,0.2131,0.2126,0.2122,0,0,0,0,0,0.2335,0.2305,0.2312,0.2307,0.2282,0.226,0.2257,0.2261,0.2276,0.2262,0.2259,0.227,0.2222,0.2238,0.2233,0.2212,0.2164,0.2161,0.2158,0.2134,0.2127,0.2122,0,0,0,0,0,0,0.2308,0.2304,0.2311,0.2278,0.2269,0.2263,0.2245,0.2254,0.224,0.2243,0.2249,0.2246,0.2216,0.2211,0.2229,0.2175,0.2195,0.2191,0.2179,0.2173,0.2168,0.2169,0.225,0,0,0,0,0,0.2298,0.2281,0.2278,0.2249,0.2244,0.2246,0.2236,0.2241,0.2231,0.2227,0.2223,0.2213,0.2196,0.2184,0.2168,0.2132,0.213,0.2115,0.211,0.2106,0.2101,0.2082,0.2076,0.2147,0.2147,0.2147,0,0,0.2278,0.2273,0.2262,0.2244,0.2237,0.2219,0.2242,0.2221,0.2208,0.2224,0.2196,0.2193,0.2182,0.215,0.2135,0.2145,0.2082,0.2102,0.2099,0.2097,0.2078,0.2072,0.2066,0.2145,0.2145,0.2145,0,0,0.2231,0.2226,0.2201,0.2195,0.2186,0.2187,0.2182,0.2175,0.2173,0.2146,0.2158,0.2142,0.2113,0.2105,0.2097,0.2049,0.2058,0.2044,0.2017,0.1998,0.1992,0.1987,0.197,0.1964,0.204,0.204,0.204,0,0.2206,0.2179,0.2187,0.2166,0.2158,0.2173,0.2148,0.2142,0.2127,0.2121,0.2133,0.2097,0.2091,0.2056,0.2045,0.2038,0.2031,0.2044,0.1993,0.1988,0.1983,0.1967,0.196,0.2038,0.2038,0.2038,0.2039,0,0.2149,0.2131,0.2112,0.2099,0.2089,0.2065,0.207,0.2058,0.2064,0.2064,0.2037,0.2031,0.2014,0.2007,0.2012,0.1973,0.198,0.1992,0.2012,0.1975,0.1959,0.1953,0.2035,0.2036,0.2037,0.2037,0,0,0.2082,0.2076,0.2069,0.2063,0.2056,0.2041,0.2019,0.2004,0.1994,0.1984,0.1965,0.1941,0.1953,0.1944,0.1949,0.1933,0.1895,0.1947,0.1947,0.1937,0.1852,0.1842,0.1835,0.1902,0.1901,0.19,0.1853,0,0.2034,0.1997,0.2004,0.1967,0.195,0.1966,0.1947,0.194,0.194,0.1925,0.1925,0.1908,0.1925,0.192,0.1905,0.1903,0.1878,0.1907,0.1884,0.1883,0.1885,0.1827,0.1815,0.1771,0.1847,0.1846,0.1845,0,0.1973,0.1963,0.1924,0.192,0.1913,0.1896,0.1883,0.187,0.1862,0.1863,0.1854,0.1863,0.1841,0.1863,0.1832,0.1852,0.1843,0.1841,0.184,0.1836,0.1861,0.1821,0.1757,0.175,0.1836,0.1837,0.1837,0,0.1927,0.1904,0.1878,0.1873,0.1868,0.1855,0.1852,0.1846,0.1837,0.1826,0.182,0.1807,0.1799,0.1788,0.1792,0.1808,0.1761,0.1783,0.1761,0.176,0.1748,0.1749,0.1681,0.1745,0.1745,0.1745,0.1745,0,0.1872,0.1848,0.1857,0.1841,0.1815,0.1824,0.1797,0.1796,0.1791,0.1775,0.1788,0.1772,0.178,0.1765,0.1768,0.1742,0.1739,0.1739,0.174,0.1737,0.1737,0.173,0.1733,0.1743,0.1744,0.1744,0.1744,0,0.1816,0.1821,0.1794,0.1792,0.1791,0.1772,0.177,0.1755,0.1757,0.1736,0.1732,0.1734,0.1718,0.1722,0.1703,0.1705,0.1673,0.1678,0.1675,0.1676,0.1653,0.1654,0.1578,0.1568,0.1639,0.1638,0.1637,0,0.178,0.1762,0.1758,0.1749,0.1746,0.173,0.1722,0.173,0.1721,0.1712,0.1698,0.1683,0.1671,0.1643,0.1643,0.1629,0.1633,0.1607,0.1631,0.1629,0.1632,0.1632,0.163,0.1602,0.1601,0.16,0.16,0,0.1715,0.1719,0.1706,0.1695,0.1685,0.1676,0.1668,0.1659,0.1668,0.1656,0.164,0.1631,0.1613,0.1597,0.1585,0.1581,0.1591,0.1593,0.1587,0.1583,0.1582,0.1581,0.1661,0.1594,0.1595,0.1595,0.1595,0.1596,0.1667,0.1652,0.1647,0.1633,0.1629,0.1622,0.1608,0.1609,0.1596,0.1582,0.1589,0.157,0.1564,0.1548,0.1544,0.1529,0.1538,0.153,0.1527,0.1524,0.1521,0.1586,0.1527,0.1527,0.1527,0.1527,0.1527,0,0.1602,0.1601,0.1588,0.1577,0.1566,0.1579,0.1572,0.1561,0.1545,0.1539,0.1528,0.1509,0.1495,0.1495,0.1481,0.1469,0.1474,0.1465,0.1465,0.1464,0.1514,0.152,0.1462,0.1462,0.1462,0.1462,0.1462,0.1462,0.1567,0.1542,0.1546,0.1519,0.1518,0.15,0.1495,0.1489,0.1484,0.1463,0.1452,0.1453,0.1449,0.1436,0.1423,0.1423,0.1417,0.1407,0.1409,0.1454,0.1461,0.1467,0.1473,0.1406,0.1406,0.1361,0.136,0.136]},{"header":{"parameterUnit":"m.s-1","parameterCategory":1,"la1":30.2991,"la2":30.254,"lo1":-89.0895,"lo2":-89.0444,"dx":0.0017,"dy":0.0017,"nx":28,"ny":28,"refTime":"2022-11-15T09:00:00:Z","depth":0,"parameterNumber":3,"parameterNumberName":"V-component_of_WINDS"},"data":[0,0,0,0,0,0,0,0,0,0,0,0,0,0,0,0,0,0,0,0,0,0,0,0,0,0,0,0,0,0,0,0,0,0,0,0,0,0,0,0,0,0,0,0,0,0,0,0,0,0,0,0,0,0,0,0,0,0,-7.2412,-7.2413,0,-7.2553,-7.2554,-7.2556,-7.2474,-7.2471,-7.2467,-7.2463,-7.2602,-7.2609,-7.2616,0,0,0,0,0,0,0,0,0,0,0,0,0,-7.2066,-7.2073,-7.2412,-7.2414,-7.2415,-7.2553,-7.2554,-7.2556,-7.2475,-7.247,-7.2466,-7.2461,-7.2599,-7.2608,-7.2617,0,0,0,0,0,0,0,0,0,0,0,0,0,-7.2213,-7.2075,-7.2411,-7.2391,-7.2391,-7.2552,-7.2555,-7.2557,-7.2476,-7.247,-7.2464,-7.2459,-7.2596,-7.2607,-7.2618,-7.2805,0,0,-7.2652,-7.2657,0,0,0,0,0,0,0,0,-7.2204,-7.2225,-7.2393,-7.2393,-7.2393,-7.249,-7.2483,-7.264,-7.2478,-7.2444,-7.2463,-7.2456,-7.2569,-7.2582,-7.2621,-7.2811,-7.2817,-7.2653,-7.2659,-7.2664,-7.2667,0,0,0,0,0,0,0,-7.2194,-7.2219,-7.2467,-7.2395,-7.2395,-7.2373,-7.2388,-7.2513,-7.2538,-7.2446,-7.2441,-7.2459,-7.2568,-7.2611,-7.2624,-7.2819,-7.2652,-7.2662,-7.2669,-7.2673,-7.3168,-7.3175,0,0,0,0,0,0,-7.2186,-7.2211,-7.2463,-7.2472,-7.2282,-7.2385,-7.24,-7.2465,-7.2536,-7.2541,-7.2464,-7.2454,-7.2595,-7.2611,-7.2628,-7.2851,-7.2664,-7.2674,-7.2681,-7.3162,-7.317,-7.3177,0,0,0,0,0,0,-7.2179,-7.221,-7.2457,-7.234,-7.237,-7.2397,-7.247,-7.2471,-7.2514,-7.2549,-7.2553,-7.2503,-7.2591,-7.2613,-7.2762,-7.2855,-7.2679,-7.269,-7.3154,-7.3164,-7.3173,-7.3299,0,0,0,0,0,0,-7.217,-7.2208,-7.2281,-7.2342,-7.2376,-7.2591,-7.2476,-7.2478,-7.2534,-7.2523,-7.2588,-7.2592,-7.2588,-7.2746,-7.2773,-7.2867,-7.2698,-7.3146,-7.3159,-7.317,-7.3287,-7.3312,-7.3334,0,0,0,0,0,-7.2158,-7.2309,-7.2285,-7.2315,-7.2468,-7.2596,-7.2615,-7.2609,-7.2541,-7.2614,-7.2637,-7.259,-7.284,-7.2762,-7.2791,-7.289,-7.314,-7.3155,-7.3169,-7.3276,-7.3307,-7.3333,0,0,0,0,0,0,-7.2256,-7.2317,-7.229,-7.2467,-7.2527,-7.2582,-7.2673,-7.2641,-7.2721,-7.2707,-7.2693,-7.2708,-7.2863,-7.2891,-7.2803,-7.3074,-7.2979,-7.3001,-7.305,-7.308,-7.3103,-7.3093,-7.2707,0,0,0,0,0,-7.2299,-7.2399,-7.2446,-7.2597,-7.2629,-7.2647,-7.2702,-7.2691,-7.2752,-7.2777,-7.281,-7.287,-7.2961,-7.3022,-7.3109,-7.329,-7.3302,-7.3373,-7.3396,-7.3415,-7.3434,-7.353,-7.3562,-7.3225,-7.3225,-7.3225,0,0,-7.2387,-7.2433,-7.2497,-7.2618,-7.2664,-7.2766,-7.2668,-7.2781,-7.2856,-7.2793,-7.2937,-7.2963,-7.3028,-7.3194,-7.3269,-7.3222,-7.3529,-7.3434,-7.3449,-7.3457,-7.3549,-7.358,-7.3609,-7.3235,-7.3233,-7.3232,0,0,-7.2601,-7.2646,-7.2777,-7.2824,-7.2895,-7.2905,-7.2937,-7.2997,-7.3013,-7.3157,-7.3111,-7.3199,-7.3358,-7.3406,-7.3451,-7.3682,-7.3642,-7.3711,-7.3833,-7.3927,-7.3954,-7.3977,-7.4059,-7.4088,-7.3729,-7.3729,-7.3729,0,-7.2701,-7.2856,-7.2847,-7.2964,-7.3018,-7.2967,-7.3098,-7.3144,-7.3239,-7.3276,-7.3223,-7.3421,-7.3461,-7.3637,-7.3694,-7.3732,-7.3766,-7.3703,-7.3951,-7.3974,-7.3996,-7.4074,-7.4104,-7.3737,-7.3736,-7.3735,-7.3735,0,-7.2975,-7.3083,-7.318,-7.3275,-7.3339,-7.3462,-7.347,-7.3537,-7.352,-7.3536,-7.3682,-7.3728,-7.3823,-7.3864,-7.3848,-7.4037,-7.4006,-7.3953,-7.3857,-7.4036,-7.4109,-7.4138,-7.3748,-7.3745,-7.3743,-7.3741,0,0,-7.3255,-7.3344,-7.3379,-7.3421,-7.3495,-7.3577,-7.3697,-7.3791,-7.3848,-7.3914,-7.4013,-7.4148,-7.4099,-7.4151,-7.414,-7.4223,-7.4402,-7.4159,-7.416,-7.4202,-7.4611,-7.4651,-7.4686,-7.4376,-7.4381,-7.4386,-7.4606,0,-7.3473,-7.3685,-7.368,-7.3876,-7.3975,-7.3927,-7.4031,-7.4087,-7.4104,-7.4189,-7.4206,-7.4303,-7.4231,-7.4261,-7.4341,-7.4363,-7.4484,-7.4347,-7.4466,-7.447,-7.4451,-7.4724,-7.4766,-7.4972,-7.4634,-7.4639,-7.4642,0,-7.3756,-7.3833,-7.404,-7.4099,-7.414,-7.4234,-7.4319,-7.4401,-7.4462,-7.4469,-7.4526,-7.4502,-7.4621,-7.4523,-7.4686,-7.4593,-7.4641,-7.4659,-7.4667,-7.4677,-7.4567,-7.4741,-7.5037,-7.5068,-7.4687,-7.4683,-7.468,0,-7.3938,-7.4094,-7.4238,-7.4275,-7.4347,-7.4414,-7.4447,-7.4503,-7.4559,-7.4633,-7.4669,-7.4756,-7.4803,-7.4869,-7.4868,-7.4796,-7.5033,-7.4934,-7.504,-7.504,-7.5091,-7.5088,-7.5399,-7.5123,-7.5123,-7.5122,-7.5122,0,-7.4182,-7.431,-7.4321,-7.4409,-7.455,-7.4543,-7.4682,-7.4708,-7.4757,-7.4848,-7.4811,-7.4897,-7.4891,-7.4976,-7.4976,-7.511,-7.5132,-7.5139,-7.5137,-7.5143,-7.5142,-7.5173,-7.5159,-7.5131,-7.5129,-7.5127,-7.5126,0,-7.4409,-7.4422,-7.4576,-7.4632,-7.4649,-7.475,-7.4797,-7.488,-7.4894,-7.5009,-7.5035,-7.5057,-7.5156,-7.5161,-7.5275,-7.5275,-7.5438,-7.542,-7.5418,-7.5415,-7.552,-7.551,-7.5862,-7.5907,-7.5603,-7.5605,-7.5608,0,-7.4564,-7.4662,-7.4728,-7.4788,-7.4825,-7.4921,-7.4978,-7.4974,-7.5035,-7.5112,-7.5185,-7.5281,-7.5357,-7.5517,-7.5542,-7.5628,-7.5612,-7.5729,-7.5625,-7.5626,-7.5613,-7.5607,-7.5616,-7.575,-7.5753,-7.5756,-7.5758,0,-7.4836,-7.4838,-7.4924,-7.5013,-7.5083,-7.5152,-7.5216,-7.5266,-7.5269,-7.5339,-7.5441,-7.5501,-7.5618,-7.5713,-7.5797,-7.5828,-7.5793,-7.5791,-7.582,-7.5826,-7.582,-7.5824,-7.5473,-7.5783,-7.578,-7.5778,-7.5777,-7.5776,-7.5032,-7.5116,-7.5176,-7.5273,-7.5321,-7.5382,-7.5462,-7.5487,-7.5572,-7.5668,-7.566,-7.5772,-7.5829,-7.5939,-7.5977,-7.6063,-7.6022,-7.6065,-7.6075,-7.6085,-7.6096,-7.5807,-7.6078,-7.6077,-7.6077,-7.6076,-7.6076,0,-7.5302,-7.5338,-7.5428,-7.5519,-7.5595,-7.5558,-7.5626,-7.5691,-7.5792,-7.5848,-7.5925,-7.6041,-7.6133,-7.6165,-7.6253,-7.6316,-7.6303,-7.634,-7.6335,-7.6342,-7.6128,-7.6094,-7.6349,-7.6349,-7.6349,-7.6349,-7.6349,-7.6349,-7.5451,-7.5592,-7.56,-7.5763,-7.5798,-7.591,-7.5952,-7.6007,-7.6052,-7.6184,-7.6261,-7.6282,-7.6328,-7.6419,-7.6501,-7.6508,-7.6542,-7.6586,-7.6586,-7.6385,-7.6357,-7.6331,-7.6299,-7.6593,-7.6594,-7.6792,-7.6794,-7.6796]}]]